Cusco, Peru

2:05 AM PET on December 10, 2016 (GMT -0500)
Cusco

Weather History for 84686 - July, 2013

Change the Weather History Date:

Wednesday, July 3, 2013

  Actual Average Record
Temperature  
Mean Temperature 53 °F -  
Max Temperature 68 °F 67 °F - ()
Min Temperature 38 °F 32 °F - ()
Degree Days  
Heating Degree Days 12    
Growing Degree Days 3 (Base 50)    
Moisture  
Dew Point 34 °F    
Average Humidity 53    
Maximum Humidity 81    
Minimum Humidity 13    
Precipitation  
Precipitation 0.00 in 0.01 in - ()
Sea Level Pressure  
Sea Level Pressure 30.44 in    
Wind  
Wind Speed 4 mph ()    
Max Wind Speed 21 mph    
Max Gust Speed -    
Visibility 6.4 miles    
Events      
T = Trace of Precipitation, MM = Missing Value Source: Averaged Metar Reports

Daily Weather History Graph

Daily Weather History Graph

Search for Another Location

Airport or City:

Trip Planner

Search our weather history database for the weather conditions in past years. The results will help you decide how hot, cold, wet, or windy it might be!

Date:

Astronomy

Jul. 03, 2013 Rise Set
Actual Time 6:11 AM PET 5:32 PM PET
Civil Twilight 5:48 AM PET 5:55 PM PET
Nautical Twilight 5:22 AM PET 6:22 PM PET
Astronomical Twilight 4:55 AM PET 6:48 PM PET
Moon 2:17 AM PET (7/3) 2:04 PM PET (7/3)
Length of Visible Light 12h 06m
Length of Day
11h 20m
Waning Crescent, 18% of the Moon is Illuminated
Jul 3
Waning Crescent
Jul 8
New
Jul 15
First Quarter
Jul 22
Full
Jul 29
Last Quarter

Hourly Weather History & Observations

Time (PET) Temp. Windchill Dew Point Humidity Pressure Visibility Wind Dir Wind Speed Gust Speed Precip Events Conditions
12:00 AM 42.8 °F 41.1 °F 35.6 °F 76% 30.48 in 6.2 mi East 3.5 mph - N/A   Scattered Clouds
1:00 AM 43 °F - 35 °F 66%  in 6 mi Calm Calm - -   Partly Cloudy
1:00 AM 42.8 °F - 35.6 °F 76% 30.48 in 6.2 mi Calm Calm - N/A   Scattered Clouds
2:00 AM 44.6 °F - 35.6 °F 71% 30.45 in 6.2 mi Variable 2.3 mph - N/A   Scattered Clouds
3:00 AM 42.8 °F - 35.6 °F 76% 30.45 in 6.2 mi Variable 1.2 mph - N/A   Scattered Clouds
4:00 AM 40 °F - 34 °F 73%  in 6 mi Calm Calm - -   Partly Cloudy
4:00 AM 39.2 °F - 33.8 °F 81% 30.45 in 6.2 mi Calm Calm - N/A   Scattered Clouds
5:00 AM 39.2 °F - 33.8 °F 81% 30.45 in 6.2 mi Variable 1.2 mph - N/A   Scattered Clouds
5:30 AM 41.0 °F - 35.6 °F 81% 30.48 in 6.2 mi Variable 1.2 mph - N/A   Mostly Cloudy
6:00 AM 42.8 °F - 35.6 °F 76% 30.48 in 6.2 mi Calm Calm - N/A   Mostly Cloudy
6:30 AM 42.8 °F 41.1 °F 35.6 °F 76% 30.48 in 6.2 mi East 3.5 mph - N/A   Mostly Cloudy
7:00 AM 43 °F - 36 °F 67%  in 6 mi 1.2 mph - -   Haze
7:00 AM 42.8 °F - 35.6 °F 76% 30.51 in 6.2 mi Variable 1.2 mph - N/A   Mostly Cloudy
7:30 AM 44.6 °F - 37.4 °F 76% 30.51 in 6.2 mi Variable 2.3 mph - N/A   Mostly Cloudy
8:00 AM 46.4 °F 45.2 °F 37.4 °F 71% 30.51 in 6.2 mi ESE 3.5 mph - N/A   Mostly Cloudy
8:30 AM 51.8 °F - 39.2 °F 62% 30.54 in 6.2 mi Variable 2.3 mph - N/A   Mostly Cloudy
9:00 AM 53.6 °F - 39.2 °F 58% 30.54 in 6.2 mi Variable 2.3 mph - N/A   Scattered Clouds
9:30 AM 57.2 °F - 39.2 °F 51% 30.51 in 6.2 mi Variable 2.3 mph - N/A   Scattered Clouds
10:00 AM 59 °F - 36 °F 31%  in 9 mi 4.6 mph - -   Partly Cloudy
10:00 AM 59.0 °F - 37.4 °F 45% 30.51 in 6.2 mi Variable 4.6 mph - N/A   Scattered Clouds
10:30 AM 60.8 °F - 35.6 °F 39% 30.48 in 6.2 mi Variable 4.6 mph - N/A   Scattered Clouds
11:00 AM 62.6 °F - 35.6 °F 37% 30.48 in 6.2 mi Variable 3.5 mph - N/A   Scattered Clouds
11:30 AM 64.4 °F - 32.0 °F 30% 30.45 in 6.2 mi Variable 5.8 mph - N/A   Scattered Clouds
12:00 PM 64.4 °F - 32.0 °F 30% 30.42 in 6.2 mi Variable 5.8 mph - N/A   Scattered Clouds
12:30 PM 68.0 °F - 30.2 °F 24% 30.39 in 6.2 mi Variable 8.1 mph - N/A   Scattered Clouds
1:00 PM 68 °F - 29 °F 13%  in 9 mi NW 10.4 mph - -   Partly Cloudy
1:00 PM 68.0 °F - 28.4 °F 23% 30.39 in 6.2 mi NW 10.4 mph - N/A   Scattered Clouds
1:30 PM 68.0 °F - 32.0 °F 26% 30.36 in 6.2 mi NW 12.7 mph - N/A   Scattered Clouds
2:00 PM 66.2 °F - 30.2 °F 26% 30.36 in 6.2 mi WSW 10.4 mph - N/A   Scattered Clouds
2:30 PM 66.2 °F - 32.0 °F 28% 30.33 in 6.2 mi WSW 12.7 mph - N/A   Scattered Clouds
3:00 PM 66.2 °F - 32.0 °F 28% 30.33 in 6.2 mi WSW 13.8 mph - N/A   Scattered Clouds
3:30 PM 60.8 °F - 30.2 °F 31% 30.33 in 6.2 mi WNW 20.7 mph - N/A   Mostly Cloudy
4:00 PM 60 °F - 30 °F 20%  in 9 mi WNW 5.8 mph - -   Partly Cloudy
4:00 PM 60.8 °F - 30.2 °F 31% 30.36 in 6.2 mi WNW 9.2 mph - N/A   Mostly Cloudy
4:30 PM 59.0 °F - 32.0 °F 36% 30.39 in 6.2 mi North 9.2 mph - N/A   Scattered Clouds
5:00 PM 57.2 °F - 33.8 °F 41% 30.39 in 6.2 mi NNE 9.2 mph - N/A   Scattered Clouds
5:30 PM 55.4 °F - 33.8 °F 44% 30.39 in 6.2 mi North 6.9 mph - N/A   Scattered Clouds
6:00 PM 53.6 °F - 33.8 °F 47% 30.39 in 6.2 mi Variable 8.1 mph - N/A   Scattered Clouds
7:00 PM 50 °F - 34 °F 43%  in 6 mi East 6.9 mph - -   Partly Cloudy
7:00 PM 50.0 °F - 33.8 °F 54% 30.42 in 6.2 mi East 6.9 mph - N/A   Unknown
8:00 PM 46.4 °F 45.2 °F 33.8 °F 62% 30.45 in 6.2 mi Variable 3.5 mph - N/A   Unknown
9:00 PM 42.8 °F 40.1 °F 33.8 °F 70% 30.45 in 6.2 mi West 4.6 mph - N/A   Unknown
10:00 PM 41 °F - 33 °F 64%  in 6 mi WNW 4.6 mph - -   Partly Cloudy
10:00 PM 41.0 °F 38.0 °F 33.8 °F 76% 30.48 in 6.2 mi WNW 4.6 mph - N/A   Unknown
11:00 PM 41.0 °F - 33.8 °F 76% 30.48 in 6.2 mi Variable 1.2 mph - N/A   Unknown